DW1980 Weather Reports


Display with metric or nautical units.
time (UTC)temp
F
wind
direction
speed
MPH
gust
MPH
rain 1hr
in
rain 24hr
in
rain mn
in
humidity
%
barometer
mb
20260906005344 67 33 0.0 1.0 0.00 0.00 0.00 86 1012.3
20260906004853 67 33 0.0 0.0 0.00 0.00 0.00 85 1012.3
20260906004621 67 33 0.0 0.0 0.00 0.00 0.00 85 1011.8
20260906004543 67 0 0.0 0.0 0.00 0.00 0.00 84 1012.0
20260906004343 68 33 0.0 0.0 0.00 0.00 0.00 84 1012.2
20260906003854 68 33 0.0 1.0 0.00 0.00 0.00 84 1012.2
20260906003345 68 33 0.0 1.0 0.00 0.00 0.00 84 1012.2
20260906003116 68 22 0.0 1.0 0.00 0.00 0.00 85 1011.6
20260906003103 68 0 0.0 1.0 0.00 0.00 0.00 84 1011.9
20260906002852 69 22 0.0 1.0 0.00 0.00 0.00 85 1012.1
20260906002341 69 360 0.0 1.0 0.00 0.00 0.00 84 1012.1
20260906001618 69 360 0.0 2.0 0.00 0.00 0.00 82 1011.4
20260906001555 69 0 0.0 2.0 0.00 0.00 0.00 82 1011.7
20260906001342 69 360 1.0 2.0 0.00 0.00 0.00 81 1011.9
20260906000851 69 360 1.0 2.0 0.00 0.00 0.00 81 1011.8
20260906000341 70 328 0.0 2.0 0.00 0.00 0.00 81 1011.8
20260906000124 69 21 0.0 2.0 0.00 0.00 0.00 81 1011.3
20260906000057 69 21 0.0 2.0 0.00 0.00 0.00 80 1011.6
20260905235848 70 21 1.0 2.0 0.00 0.00 0.00 81 1011.7
20260905235356 70 21 1.0 3.0 0.00 0.00 0.00 80 1011.6
20260905234906 71 15 2.0 3.0 0.00 0.00 0.00 81 1011.6
20260905234612 70 17 0.0 2.0 0.00 0.00 0.00 81 1011.1
20260905234545 70 331 0.0 1.0 0.00 0.00 0.00 80 1011.5
20260905234354 71 293 0.0 1.0 0.00 0.00 0.00 81 1011.6
20260905233844 72 286 0.0 1.0 0.00 0.00 0.00 82 1011.6
20260905233353 72 286 0.0 1.0 0.00 0.00 0.00 80 1011.5
20260905233111 71 286 0.0 1.0 0.00 0.00 0.00 79 1011.0
20260905233052 71 0 0.0 1.0 0.00 0.00 0.00 78 1011.4
20260905232837 72 286 0.0 1.0 0.00 0.00 0.00 78 1011.6
20260905232346 72 286 0.0 2.0 0.00 0.00 0.00 77 1011.5
20260905231854 73 286 1.0 4.0 0.00 0.00 0.00 76 1011.4
20260905231618 72 314 0.0 4.0 0.00 0.00 0.00 76 1011.0
20260905231555 72 314 0.0 4.0 0.00 0.00 0.00 75 1011.3
20260905231343 73 320 1.0 4.0 0.00 0.00 0.00 76 1011.4
20260905230851 73 17 0.0 3.0 0.00 0.00 0.00 80 1011.4
20260905230359 74 355 0.0 3.0 0.00 0.00 0.00 76 1011.4
20260905230054 74 331 0.0 3.0 0.00 0.00 0.00 76 1011.2
20260905230007 74 331 0.0 3.0 0.00 0.00 0.00 78 1010.9
20260905225906 74 332 0.0 3.0 0.00 0.00 0.00 77 1011.3
20260905225335 75 313 0.0 2.0 0.00 0.00 0.00 78 1011.2
20260905224847 75 332 0.0 5.0 0.00 0.00 0.00 77 1011.1
20260905224615 75 332 0.0 5.0 0.00 0.00 0.00 74 1010.6
20260905224550 75 0 0.0 5.0 0.00 0.00 0.00 71 1011.0
20260905224336 75 331 1.0 5.0 0.00 0.00 0.00 70 1011.1
20260905223847 76 331 1.0 4.0 0.00 0.00 0.00 70 1011.1
20260905223357 76 10 1.0 4.0 0.00 0.00 0.00 67 1011.0
20260905223102 76 13 1.0 6.0 0.00 0.00 0.00 70 1010.6
20260905223054 76 352 1.0 8.0 0.00 0.00 0.00 67 1010.8
20260905222844 76 315 1.0 8.0 0.00 0.00 0.00 66 1011.0
20260905222354 76 327 2.0 8.0 0.00 0.00 0.00 66 1011.0
20260905221843 76 22 2.0 6.0 0.00 0.00 0.00 65 1010.9
20260905221617 76 350 2.0 6.0 0.00 0.00 0.00 65 1010.5
20260905221555 76 345 2.0 6.0 0.00 0.00 0.00 64 1010.7
20260905221353 77 338 3.0 6.0 0.00 0.00 0.00 68 1010.9
20260905220844 77 15 1.0 9.0 0.00 0.00 0.00 65 1010.9
20260905220355 77 325 2.0 9.0 0.00 0.00 0.00 64 1010.9
20260905220119 76 360 3.0 9.0 0.00 0.00 0.00 63 1010.4
20260905220048 76 355 4.0 9.0 0.00 0.00 0.00 63 1010.8
20260905215842 77 9 3.0 9.0 0.00 0.00 0.00 63 1010.9
20260905215352 77 319 2.0 11.0 0.00 0.00 0.00 68 1010.8
20260905214844 77 324 2.0 11.0 0.00 0.00 0.00 64 1010.7
20260905214617 77 323 4.0 11.0 0.00 0.00 0.00 65 1010.3
20260905214600 77 360 2.0 9.0 0.00 0.00 0.00 64 1010.6
20260905214354 78 44 2.0 5.0 0.00 0.00 0.00 65 1010.7
20260905213846 78 337 1.0 3.0 0.00 0.00 0.00 65 1010.8
20260905213420 78 257 1.0 8.0 0.00 0.00 0.00 65 1010.8
20260905213106 77 325 1.0 8.0 0.00 0.00 0.00 64 1010.3
20260905213052 77 323 2.0 8.0 0.00 0.00 0.00 63 1010.5
20260905212845 78 27 3.0 8.0 0.00 0.00 0.00 63 1010.8
20260905212354 78 34 3.0 5.0 0.00 0.00 0.00 64 1010.7
20260905211906 78 44 3.0 9.0 0.00 0.00 0.00 63 1010.6
20260905211613 77 360 2.0 9.0 0.00 0.00 0.00 64 1010.1
20260905211551 77 313 2.0 9.0 0.00 0.00 0.00 63 1010.5
20260905211354 78 254 2.0 9.0 0.00 0.00 0.00 64 1010.6
20260905210845 78 336 4.0 10.0 0.00 0.00 0.00 63 1010.6
20260905210357 78 337 3.0 10.0 0.00 0.00 0.00 65 1010.6
20260905205904 78 26 2.0 6.0 0.00 0.00 0.00 66 1010.5
20260905205354 78 294 3.0 6.0 0.00 0.00 0.00 63 1010.6
20260905204905 78 279 2.0 8.0 0.00 0.00 0.00 63 1010.5
20260905204612 78 299 2.0 8.0 0.00 0.00 0.00 62 1010.0
20260905204555 78 279 2.0 8.0 0.00 0.00 0.00 61 1010.3
20260905204355 78 9 2.0 8.0 0.00 0.00 0.00 62 1010.5
20260905203845 78 11 3.0 8.0 0.00 0.00 0.00 62 1010.5
20260905203339 79 300 2.0 9.0 0.00 0.00 0.00 60 1010.4
20260905203120 78 19 3.0 9.0 0.00 0.00 0.00 61 1009.9
20260905203043 78 323 3.0 9.0 0.00 0.00 0.00 60 1010.2
20260905202845 79 344 5.0 9.0 0.00 0.00 0.00 61 1010.3
20260905202354 79 28 3.0 9.0 0.00 0.00 0.00 60 1010.4
20260905201903 79 292 4.0 11.0 0.00 0.00 0.00 64 1010.3
20260905201627 79 298 2.0 11.0 0.00 0.00 0.00 61 1009.9
20260905201545 79 33 2.0 11.0 0.00 0.00 0.00 62 1010.2
20260905201350 80 317 3.0 11.0 0.00 0.00 0.00 61 1010.4
20260905200839 80 314 2.0 9.0 0.00 0.00 0.00 62 1010.4
20260905200350 80 360 5.0 9.0 0.00 0.00 0.00 59 1010.5
20260905200108 80 331 3.0 6.0 0.00 0.00 0.00 59 1010.0
20260905200056 80 314 2.0 9.0 0.00 0.00 0.00 59 1010.2
20260905195854 81 343 2.0 8.0 0.00 0.00 0.00 62 1010.4
20260905195340 81 21 2.0 9.0 0.00 0.00 0.00 58 1010.4
20260905194910 81 13 1.0 11.0 0.00 0.00 0.00 63 1010.5
20260905194557 81 330 5.0 11.0 0.00 0.00 0.00 60 1010.1
20260905194357 82 24 6.0 11.0 0.00 0.00 0.00 57 1010.4
20260905193844 83 116 0.0 8.0 0.00 0.00 0.00 65 1010.4
20260905193413 83 287 3.0 8.0 0.00 0.00 0.00 56 1010.4
20260905193115 82 331 3.0 8.0 0.00 0.00 0.00 56 1009.9
20260905193043 82 27 2.0 8.0 0.00 0.00 0.00 56 1010.2
20260905192857 83 298 2.0 8.0 0.00 0.00 0.00 67 1010.4
20260905192345 82 310 2.0 11.0 0.00 0.00 0.00 58 1010.6
20260905191853 83 303 4.0 11.0 0.00 0.00 0.00 60 1010.6
20260905191614 82 344 3.0 10.0 0.00 0.00 0.00 56 1010.0
20260905191557 82 278 2.0 10.0 0.00 0.00 0.00 56 1010.2
20260905191341 83 19 2.0 10.0 0.00 0.00 0.00 60 1010.6
20260905190849 82 302 2.0 8.0 0.00 0.00 0.00 58 1010.5
20260905190419 82 315 3.0 9.0 0.00 0.00 0.00 56 1010.6
20260905190117 82 15 3.0 9.0 0.00 0.00 0.00 55 1010.1
20260905190052 82 37 4.0 9.0 0.00 0.00 0.00 55 1010.3
20260905185843 82 13 4.0 9.0 0.00 0.00 0.00 58 1010.7
20260905185352 82 282 3.0 8.0 0.00 0.00 0.00 59 1010.6
20260905184902 82 261 3.0 8.0 0.00 0.00 0.00 58 1010.7
20260905184611 82 340 0.0 8.0 0.00 0.00 0.00 59 1010.4
20260905184604 82 355 1.0 6.0 0.00 0.00 0.00 58 1010.2
20260905184349 83 317 2.0 6.0 0.00 0.00 0.00 58 1010.7
20260905183838 82 9 3.0 8.0 0.00 0.00 0.00 58 1010.7
20260905183349 82 298 2.0 7.0 0.00 0.00 0.00 62 1010.7
20260905183117 81 69 1.0 11.0 0.00 0.00 0.00 61 1010.3
20260905183048 81 352 2.0 11.0 0.00 0.00 0.00 61 1010.4
20260905182918 82 18 2.0 11.0 0.00 0.00 0.00 64 1010.8
20260905182343 81 306 5.0 11.0 0.00 0.00 0.00 60 1010.8
20260905181914 80 286 2.0 8.0 0.00 0.00 0.00 65 1010.8
20260905181600 79 355 3.0 8.0 0.00 0.00 0.00 61 1010.7
20260905181503 79 315 3.0 8.0 0.00 0.00 0.00 63 1010.4
20260905181402 80 296 4.0 8.0 0.00 0.00 0.00 62 1011.0
20260905180909 81 332 3.0 8.0 0.00 0.00 0.00 63 1010.9
20260905180358 80 258 3.0 11.0 0.00 0.00 0.00 67 1010.9
20260905180117 79 51 1.0 11.0 0.00 0.00 0.00 66 1010.5
20260905180053 79 27 4.0 12.0 0.00 0.00 0.00 68 1010.8
20260905175842 79 278 4.0 11.0 0.00 0.00 0.00 65 1011.0
20260905175350 80 326 3.0 12.0 0.00 0.00 0.00 62 1011.0
20260905174838 80 275 2.0 11.0 0.00 0.00 0.00 63 1011.1
20260905174607 79 324 2.0 11.0 0.00 0.00 0.00 67 1010.5
20260905174544 79 5 4.0 11.0 0.00 0.00 0.00 67 1010.9
20260905174348 79 287 4.0 11.0 0.00 0.00 0.00 65 1011.0
20260905173840 78 360 2.0 8.0 0.00 0.00 0.00 68 1011.1
20260905173352 79 288 3.0 7.0 0.00 0.00 0.00 66 1011.2
20260905173116 79 34 1.0 5.0 0.00 0.00 0.00 65 1010.7
20260905173106 79 0 2.0 7.0 0.00 0.00 0.00 63 1010.9
20260905172839 80 297 3.0 6.0 0.00 0.00 0.00 64 1011.1
20260905172410 79 98 2.0 12.0 0.00 0.00 0.00 69 1011.1
20260905171858 78 304 5.0 12.0 0.00 0.00 0.00 66 1011.3
20260905171606 78 299 5.0 11.0 0.00 0.00 0.00 67 1010.8
20260905171558 78 41 4.0 11.0 0.00 0.00 0.00 65 1011.1
20260905171347 78 33 4.0 11.0 0.00 0.00 0.00 67 1011.3
20260905170853 78 351 3.0 11.0 0.00 0.00 0.00 69 1011.3
20260905170344 79 281 5.0 11.0 0.00 0.00 0.00 64 1011.3
20260905170109 78 26 3.0 8.0 0.00 0.00 0.00 65 1010.7
20260905170052 78 312 2.0 8.0 0.00 0.00 0.00 64 1011.0
20260905165852 79 11 2.0 6.0 0.00 0.00 0.00 63 1011.2
20260905165341 78 288 3.0 8.0 0.00 0.00 0.00 66 1011.3
20260905164851 79 15 3.0 9.0 0.00 0.00 0.00 63 1011.3
20260905164546 79 340 2.0 13.0 0.00 0.00 0.00 65 1011.1
20260905164501 79 52 2.0 13.0 0.00 0.00 0.00 66 1010.9
20260905164400 79 326 4.0 13.0 0.00 0.00 0.00 65 1011.3
20260905163849 78 339 8.0 13.0 0.00 0.00 0.00 63 1011.4
20260905163340 78 9 5.0 10.0 0.00 0.00 0.00 66 1011.4
20260905163106 78 350 3.0 13.0 0.00 0.00 0.00 66 1010.9
20260905163102 78 46 3.0 13.0 0.00 0.00 0.00 67 1011.1
20260905162846 78 317 4.0 13.0 0.00 0.00 0.00 66 1011.4
20260905162417 78 335 5.0 13.0 0.00 0.00 0.00 66 1011.3
20260905161846 79 328 3.0 11.0 0.00 0.00 0.00 70 1011.2
20260905161615 78 342 4.0 13.0 0.00 0.00 0.00 66 1010.7
20260905161551 78 360 4.0 13.0 0.00 0.00 0.00 68 1011.0
20260905161338 78 9 3.0 13.0 0.00 0.00 0.00 69 1011.3
20260905160909 78 115 7.0 13.0 0.00 0.00 0.00 66 1011.3
20260905160340 78 30 6.0 12.0 0.00 0.00 0.00 68 1011.3
20260905160049 77 61 3.0 15.0 0.00 0.00 0.00 67 1010.9
20260905155907 77 9 4.0 15.0 0.00 0.00 0.00 70 1011.3
20260905155336 77 11 3.0 15.0 0.00 0.00 0.00 70 1011.3
20260905154847 76 323 3.0 13.0 0.00 0.00 0.00 70 1011.3
20260905154620 76 267 5.0 13.0 0.00 0.00 0.00 70 1010.9
20260905154612 76 23 4.0 10.0 0.00 0.00 0.00 68 1011.0
20260905154356 76 346 4.0 9.0 0.00 0.00 0.00 70 1011.4
20260905153844 76 19 4.0 12.0 0.00 0.00 0.00 70 1011.3
20260905153354 77 280 6.0 13.0 0.00 0.00 0.00 68 1011.3
20260905153117 76 347 4.0 13.0 0.00 0.00 0.00 70 1010.8
20260905153051 76 341 2.0 13.0 0.00 0.00 0.00 69 1011.1
20260905152840 77 342 3.0 13.0 0.00 0.00 0.00 70 1011.3
20260905152351 77 37 2.0 9.0 0.00 0.00 0.00 69 1011.3
20260905151840 76 282 4.0 9.0 0.00 0.00 0.00 69 1011.4
20260905151609 75 337 4.0 9.0 0.00 0.00 0.00 69 1011.0
20260905151551 75 268 3.0 9.0 0.00 0.00 0.00 69 1011.1
20260905151349 75 28 3.0 9.0 0.00 0.00 0.00 71 1011.5
20260905150900 74 336 3.0 12.0 0.00 0.00 0.00 76 1011.6
20260905150350 74 360 1.0 12.0 0.00 0.00 0.00 75 1011.5
20260905150115 73 309 4.0 12.0 0.00 0.00 0.00 73 1011.0
20260905150058 73 284 4.0 12.0 0.00 0.00 0.00 72 1011.2
20260905145841 73 338 3.0 10.0 0.00 0.00 0.00 74 1011.5
20260905145350 73 231 3.0 12.0 0.00 0.00 0.00 74 1011.5
20260905144900 73 304 7.0 12.0 0.00 0.00 0.00 74 1011.4
20260905144554 73 344 3.0 10.0 0.00 0.00 0.00 75 1010.9
20260905144348 73 28 5.0 10.0 0.00 0.00 0.00 75 1011.2
20260905143839 73 51 4.0 12.0 0.00 0.00 0.00 75 1011.4
20260905143349 73 334 3.0 12.0 0.00 0.00 0.00 74 1011.4
20260905143110 73 296 5.0 12.0 0.00 0.00 0.00 74 1010.9
20260905143052 73 326 6.0 12.0 0.00 0.00 0.00 74 1011.0
20260905142856 73 319 5.0 11.0 0.00 0.00 0.00 75 1011.5
20260905142346 73 51 4.0 9.0 0.00 0.00 0.00 77 1011.4
20260905141853 72 17 3.0 8.0 0.00 0.00 0.00 79 1011.4
20260905141616 71 41 2.0 9.0 0.00 0.00 0.00 80 1010.9
20260905141550 71 350 1.0 9.0 0.00 0.00 0.00 79 1011.0
20260905141340 72 5 3.0 9.0 0.00 0.00 0.00 80 1011.3
20260905140910 72 309 4.0 14.0 0.00 0.00 0.00 79 1011.2
20260905140339 71 11 5.0 14.0 0.00 0.00 0.00 79 1011.3
20260905140048 71 42 5.0 14.0 0.00 0.00 0.00 79 1011.0
20260905135846 71 360 5.0 9.0 0.00 0.00 0.00 81 1011.3
20260905135356 71 24 3.0 10.0 0.00 0.00 0.00 81 1011.3
20260905134843 70 10 4.0 9.0 0.00 0.00 0.00 82 1011.4
20260905134607 70 360 2.0 8.0 0.00 0.00 0.00 83 1010.8
20260905134553 70 30 3.0 9.0 0.00 0.00 0.00 83 1011.0
20260905134351 70 266 3.0 9.0 0.00 0.00 0.00 84 1011.3
20260905133838 70 268 3.0 9.0 0.00 0.00 0.00 84 1011.3
20260905133351 69 348 3.0 10.0 0.00 0.00 0.00 85 1011.3
20260905133116 69 300 4.0 10.0 0.00 0.00 0.00 85 1010.9
20260905133052 69 281 3.0 10.0 0.00 0.00 0.00 84 1011.0
20260905132858 69 5 4.0 10.0 0.00 0.00 0.00 85 1011.3
20260905132346 68 12 4.0 9.0 0.00 0.00 0.00 87 1011.4
20260905131837 68 9 3.0 10.0 0.00 0.00 0.00 88 1011.4
20260905131609 67 11 2.0 10.0 0.00 0.00 0.00 88 1010.9
20260905131545 67 28 3.0 10.0 0.00 0.00 0.00 88 1011.0
20260905131348 67 338 4.0 10.0 0.00 0.00 0.00 89 1011.4
20260905130858 67 30 4.0 9.0 0.00 0.00 0.00 90 1011.4
20260905130409 66 320 3.0 8.0 0.00 0.00 0.00 91 1011.5
20260905130113 66 338 2.0 8.0 0.00 0.00 0.00 91 1011.0
20260905130049 65 306 3.0 8.0 0.00 0.00 0.00 91 1011.1
20260905125855 66 27 3.0 6.0 0.00 0.00 0.00 92 1011.5
20260905125347 65 306 2.0 4.0 0.00 0.00 0.00 92 1011.6
20260905124858 65 319 1.0 3.0 0.00 0.00 0.00 93 1011.7
20260905124606 64 288 0.0 4.0 0.00 0.00 0.00 93 1011.1
20260905124553 64 327 0.0 4.0 0.00 0.00 0.00 93 1011.2
20260905124348 64 308 1.0 4.0 0.00 0.00 0.00 93 1011.6
20260905123839 64 9 2.0 4.0 0.00 0.00 0.00 93 1011.7
20260905123349 64 355 2.0 5.0 0.00 0.00 0.00 94 1011.7
20260905123115 63 347 1.0 5.0 0.00 0.00 0.00 94 1011.1
20260905123056 63 5 1.0 5.0 0.00 0.00 0.00 93 1011.3
20260905122837 64 24 2.0 5.0 0.00 0.00 0.00 94 1011.6
20260905122346 63 5 2.0 4.0 0.00 0.00 0.00 94 1011.7
20260905121837 63 30 2.0 4.0 0.00 0.00 0.00 94 1011.7
20260905121609 62 12 1.0 3.0 0.00 0.00 0.00 94 1011.2
20260905121545 62 0 1.0 3.0 0.00 0.00 0.00 93 1011.4
20260905121348 63 5 2.0 3.0 0.00 0.00 0.00 94 1011.8
20260905120859 63 11 1.0 3.0 0.00 0.00 0.00 94 1011.8
20260905120350 63 11 2.0 3.0 0.00 0.00 0.00 94 1011.7
20260905120113 62 23 2.0 3.0 0.00 0.00 0.00 94 1011.2
20260905120050 62 5 1.0 4.0 0.00 0.00 0.00 93 1011.3
20260905115837 62 350 2.0 4.0 0.00 0.00 0.00 94 1011.7
20260905115347 62 29 1.0 4.0 0.00 0.00 0.00 94 1011.7
20260905114837 62 342 0.0 2.0 0.00 0.00 0.00 94 1011.6
20260905114606 62 36 0.0 2.0 0.00 0.00 0.00 94 1011.1
20260905114555 62 0 0.0 2.0 0.00 0.00 0.00 93 1011.4
20260905114349 62 57 0.0 2.0 0.00 0.00 0.00 94 1011.6
20260905113839 62 37 0.0 0.0 0.00 0.00 0.00 94 1011.4
20260905113349 62 37 0.0 0.0 0.00 0.00 0.00 93 1011.3
20260905113114 61 44 0.0 0.0 0.00 0.00 0.00 94 1010.8
20260905113055 61 0 0.0 0.0 0.00 0.00 0.00 93 1011.0
20260905112836 62 44 0.0 0.0 0.00 0.00 0.00 94 1011.3
20260905112408 62 44 0.0 1.0 0.00 0.00 0.00 93 1011.3
20260905111858 62 44 0.0 2.0 0.00 0.00 0.00 93 1011.1
20260905111641 61 0 0.0 2.0 0.00 0.00 0.00 93 1010.7
20260905111610 61 44 0.0 2.0 0.00 0.00 0.00 93 1010.6
20260905111347 62 49 0.0 2.0 0.00 0.00 0.00 93 1011.1
20260905110858 62 34 1.0 2.0 0.00 0.00 0.00 93 1011.0
20260905110349 61 316 0.0 1.0 0.00 0.00 0.00 93 1011.0
20260905110114 61 316 0.0 1.0 0.00 0.00 0.00 93 1010.4
20260905110050 61 0 0.0 1.0 0.00 0.00 0.00 93 1010.6
20260905105836 61 316 0.0 1.0 0.00 0.00 0.00 93 1010.9
20260905105348 61 316 0.0 1.0 0.00 0.00 0.00 93 1010.9
20260905104842 61 316 0.0 0.0 0.00 0.00 0.00 93 1010.9
20260905104615 61 316 0.0 0.0 0.00 0.00 0.00 93 1010.4
20260905104604 61 0 0.0 0.0 0.00 0.00 0.00 93 1010.5
20260905104407 61 316 0.0 0.0 0.00 0.00 0.00 93 1010.8
20260905103841 61 316 0.0 0.0 0.00 0.00 0.00 93 1010.8
20260905103352 61 316 0.0 0.0 0.00 0.00 0.00 93 1010.8
20260905103114 61 316 0.0 0.0 0.00 0.00 0.00 93 1010.3
20260905103050 61 0 0.0 0.0 0.00 0.00 0.00 92 1010.4
20260905102837 62 316 0.0 0.0 0.00 0.00 0.00 93 1010.9
20260905102348 62 316 0.0 0.0 0.00 0.00 0.00 93 1010.9
20260905101858 62 316 0.0 1.0 0.00 0.00 0.00 93 1010.8
20260905101623 61 316 0.0 1.0 0.00 0.00 0.00 93 1010.3
20260905101600 61 0 0.0 1.0 0.00 0.00 0.00 92 1010.4
20260905101347 62 316 0.0 1.0 0.00 0.00 0.00 93 1010.8
20260905100854 62 316 0.0 0.0 0.00 0.00 0.00 93 1010.7
20260905100344 62 316 0.0 1.0 0.00 0.00 0.00 93 1010.6
20260905100052 62 0 0.0 1.0 0.00 0.00 0.00 92 1010.3
20260905095850 62 316 0.0 0.0 0.00 0.00 0.00 93 1010.6
20260905095342 62 316 0.0 0.0 0.00 0.00 0.00 93 1010.6
20260905094912 63 316 0.0 0.0 0.00 0.00 0.00 93 1010.6
20260905094615 62 316 0.0 1.0 0.00 0.00 0.00 93 1010.0
20260905094555 62 0 0.0 1.0 0.00 0.00 0.00 92 1010.3
20260905094341 63 316 0.0 1.0 0.00 0.00 0.00 93 1010.5
20260905093852 63 316 0.0 1.0 0.00 0.00 0.00 93 1010.5
20260905093341 63 316 0.0 1.0 0.00 0.00 0.00 92 1010.4
20260905093106 63 316 0.0 2.0 0.00 0.00 0.00 93 1009.9
20260905093101 63 0 0.0 2.0 0.00 0.00 0.00 92 1010.2
20260905092849 63 316 0.0 2.0 0.00 0.00 0.00 93 1010.4
20260905092341 63 316 0.0 1.0 0.00 0.00 0.00 92 1010.4
20260905091853 63 316 0.0 1.0 0.00 0.00 0.00 92 1010.5
20260905091638 63 316 0.0 0.0 0.00 0.00 0.00 92 1009.9
20260905091553 63 0 0.0 0.0 0.00 0.00 0.00 92 1010.3
20260905091344 64 316 0.0 0.0 0.00 0.00 0.00 92 1010.4
20260905090853 64 316 0.0 0.0 0.00 0.00 0.00 92 1010.4
20260905090345 64 316 0.0 0.0 0.00 0.00 0.00 92 1010.4
20260905090110 64 316 0.0 0.0 0.00 0.00 0.00 92 1009.8
20260905090049 64 0 0.0 0.0 0.00 0.00 0.00 92 1010.2
20260905085852 64 316 0.0 0.0 0.00 0.00 0.00 92 1010.4
20260905085343 64 316 0.0 0.0 0.00 0.00 0.00 92 1010.4
20260905084854 65 316 0.0 0.0 0.00 0.00 0.00 92 1010.4
20260905084623 64 316 0.0 0.0 0.00 0.00 0.00 92 1009.9
20260905084603 64 0 0.0 0.0 0.00 0.00 0.00 92 1010.2
20260905084344 65 316 0.0 0.0 0.00 0.00 0.00 92 1010.4
20260905083916 65 316 0.0 1.0 0.00 0.00 0.00 92 1010.4
20260905083406 65 316 0.0 1.0 0.00 0.00 0.00 92 1010.4
20260905083111 65 316 0.0 1.0 0.00 0.00 0.00 92 1009.8
20260905083053 65 0 0.0 1.0 0.00 0.00 0.00 92 1010.2
20260905082854 65 316 0.0 1.0 0.00 0.00 0.00 92 1010.4
20260905082403 65 316 0.0 1.0 0.00 0.00 0.00 92 1010.4
20260905081914 65 316 0.0 1.0 0.00 0.00 0.00 92 1010.5
20260905081605 65 316 0.0 2.0 0.00 0.00 0.00 92 1009.9
20260905081548 65 0 0.0 2.0 0.00 0.00 0.00 92 1010.3
20260905081344 66 316 0.0 2.0 0.00 0.00 0.00 92 1010.5
20260905080915 66 18 1.0 1.0 0.00 0.00 0.00 92 1010.5
20260905080345 66 18 0.0 0.0 0.00 0.00 0.00 93 1010.4
20260905080110 65 18 0.0 0.0 0.00 0.00 0.00 93 1009.8
20260905080100 65 0 0.0 0.0 0.00 0.00 0.00 92 1010.2
20260905075853 66 18 0.0 0.0 0.00 0.02 0.00 93 1010.5
20260905075344 66 18 0.0 1.0 0.00 0.02 0.00 93 1010.5
20260905074855 66 18 0.0 1.0 0.00 0.02 0.00 93 1010.5
20260905074628 65 18 0.0 1.0 0.00 0.02 0.00 93 1009.9
20260905074552 66 18 0.0 2.0 0.00 0.02 0.00 92 1010.2
20260905074346 66 18 0.0 2.0 0.00 0.02 0.00 93 1010.4
20260905073836 66 18 0.0 3.0 0.00 0.02 0.00 92 1010.4
20260905073348 66 33 1.0 3.0 0.00 0.02 0.00 92 1010.3
20260905073114 65 29 0.0 3.0 0.00 0.02 0.00 92 1009.7
20260905073054 65 0 1.0 4.0 0.00 0.02 0.00 92 1010.1
20260905072837 66 19 2.0 4.0 0.00 0.02 0.00 92 1010.3
20260905072348 66 333 1.0 4.0 0.00 0.02 0.00 92 1010.3
20260905071843 66 5 2.0 3.0 0.00 0.02 0.00 93 1010.4
20260905071613 65 355 0.0 3.0 0.00 0.02 0.00 93 1009.8
20260905071545 65 360 1.0 3.0 0.00 0.02 0.00 92 1010.2
20260905071353 66 360 2.0 3.0 0.00 0.02 0.00 93 1010.3
20260905070903 66 350 0.0 3.0 0.00 0.02 0.00 93 1010.4
20260905070353 66 5 0.0 3.0 0.00 0.02 0.00 93 1010.4
20260905070114 66 38 0.0 3.0 0.00 0.02 0.00 93 1009.9
20260905070055 66 0 0.0 3.0 0.00 0.02 0.00 92 1010.2
20260905065840 66 38 1.0 3.0 0.00 0.13 0.00 93 1010.4
20260905065351 66 53 0.0 1.0 0.00 0.13 0.00 93 1010.5
20260905064839 66 53 0.0 1.0 0.00 0.13 0.00 93 1010.5
20260905064601 66 53 0.0 1.0 0.00 0.13 0.00 93 1010.0
20260905064553 66 0 0.0 1.0 0.00 0.13 0.00 92 1010.3
20260905064410 66 53 0.0 1.0 0.00 0.13 0.00 93 1010.5
20260905063841 66 53 0.0 2.0 0.00 0.13 0.00 92 1010.6
20260905063354 66 53 1.0 2.0 0.00 0.13 0.00 92 1010.6
20260905063112 66 53 0.0 2.0 0.00 0.13 0.00 93 1010.1
20260905063044 66 36 0.0 3.0 0.00 0.13 0.00 92 1010.4
20260905062838 66 36 1.0 3.0 0.00 0.13 0.00 93 1010.7
20260905062349 66 26 0.0 3.0 0.00 0.13 0.00 92 1010.7
20260905061859 66 48 0.0 3.0 0.00 0.13 0.00 93 1010.8
20260905061616 66 70 1.0 3.0 0.00 0.13 0.00 93 1010.3
20260905061559 66 0 0.0 3.0 0.00 0.13 0.00 92 1010.6
20260905061350 66 50 1.0 2.0 0.00 0.13 0.00 93 1010.9
20260905060859 66 45 0.0 2.0 0.00 0.13 0.00 93 1010.8
20260905060350 66 38 0.0 1.0 0.00 0.13 0.00 93 1010.8
20260905060114 66 38 0.0 2.0 0.00 0.13 0.00 93 1010.2
20260905060054 66 0 0.0 2.0 0.00 0.13 0.00 92 1010.6
20260905055837 66 38 0.0 2.0 0.00 0.28 0.00 93 1010.9
20260905055409 66 38 1.0 2.0 0.00 0.28 0.00 92 1010.8
20260905054838 66 38 0.0 1.0 0.00 0.28 0.00 93 1010.9
20260905054607 66 38 0.0 1.0 0.00 0.28 0.00 93 1010.3
20260905054548 66 0 0.0 1.0 0.00 0.28 0.00 92 1010.8
20260905054349 66 38 0.0 1.0 0.00 0.28 0.00 93 1011.0
20260905053839 66 38 0.0 1.0 0.00 0.28 0.00 92 1011.1
20260905053412 66 38 0.0 2.0 0.00 0.28 0.00 92 1011.2
20260905053117 66 38 0.0 2.0 0.00 0.28 0.00 92 1010.6
20260905053048 66 0 0.0 2.0 0.00 0.28 0.00 92 1011.1
20260905052838 66 38 1.0 2.0 0.00 0.28 0.00 92 1011.2
20260905052349 66 38 0.0 1.0 0.00 0.28 0.00 92 1011.3
20260905051839 66 38 0.0 1.0 0.00 0.28 0.00 92 1011.3
20260905051607 66 38 0.0 1.0 0.00 0.28 0.00 92 1010.7
20260905051556 66 0 0.0 1.0 0.00 0.28 0.00 92 1011.0
20260905051349 66 38 0.0 1.0 0.00 0.28 0.00 92 1011.2
20260905050841 66 38 0.0 1.0 0.00 0.28 0.00 92 1011.2
20260905050353 66 38 0.0 0.0 0.00 0.28 0.00 92 1011.3
20260905050119 66 38 0.0 0.0 0.00 0.28 0.00 92 1010.8
20260905050053 66 0 0.0 0.0 0.00 0.28 0.00 92 1011.1
20260905045839 66 38 0.0 0.0 0.00 0.32 0.00 92 1011.3
20260905045351 67 38 0.0 0.0 0.00 0.32 0.00 92 1011.4
20260905044842 67 38 0.0 0.0 0.00 0.32 0.00 92 1011.4
20260905044610 66 38 0.0 0.0 0.00 0.32 0.00 92 1010.9
20260905044552 66 0 0.0 1.0 0.00 0.32 0.00 92 1011.3
20260905044353 66 38 0.0 1.0 0.00 0.32 0.00 92 1011.4
20260905043843 67 38 0.0 1.0 0.00 0.32 0.00 92 1011.5
20260905043355 66 38 0.0 2.0 0.00 0.32 0.00 92 1011.5
20260905043120 66 38 0.0 2.0 0.00 0.32 0.00 92 1010.9
20260905043055 66 0 0.0 3.0 0.00 0.32 0.00 92 1011.3
20260905042843 66 38 0.0 3.0 0.00 0.32 0.00 92 1011.5
20260905042353 66 11 1.0 4.0 0.00 0.32 0.00 92 1011.4
20260905041845 66 15 2.0 4.0 0.00 0.32 0.00 92 1011.4
20260905041615 66 5 2.0 4.0 0.00 0.32 0.00 92 1010.9
20260905041544 66 17 1.0 4.0 0.00 0.32 0.00 92 1011.2
20260905041341 66 360 2.0 4.0 0.00 0.32 0.00 92 1011.4
20260905040848 66 323 3.0 4.0 0.00 0.32 0.00 92 1011.4
20260905040340 66 5 2.0 4.0 0.00 0.32 0.00 93 1011.4
20260905040120 66 355 1.0 3.0 0.00 0.32 0.00 93 1010.9
20260905040103 66 360 0.0 3.0 0.00 0.32 0.00 92 1011.3
20260905035846 66 17 1.0 3.0 0.00 0.32 0.32 93 1011.5
20260905035355 66 342 1.0 3.0 0.00 0.32 0.32 93 1011.6
20260905034845 66 11 1.0 3.0 0.00 0.32 0.32 93 1011.5
20260905034606 66 355 1.0 3.0 0.00 0.32 0.32 92 1010.9
20260905034555 66 355 0.0 3.0 0.00 0.32 0.32 92 1011.3
20260905034353 67 30 0.0 2.0 0.00 0.32 0.32 92 1011.6
20260905033843 66 26 0.0 2.0 0.00 0.32 0.32 92 1011.7
20260905033353 66 5 1.0 2.0 0.00 0.32 0.32 92 1011.7
20260905033111 66 0 0.0 3.0 0.00 0.32 0.32 92 1011.4
20260905032858 66 34 1.0 3.0 0.00 0.32 0.32 92 1011.6
20260905032349 66 14 2.0 3.0 0.00 0.32 0.32 92 1011.7
20260905031838 66 12 0.0 2.0 0.00 0.32 0.32 92 1011.7
20260905031613 66 0 0.0 2.0 0.00 0.32 0.32 92 1011.5
20260905031606 66 12 0.0 2.0 0.00 0.32 0.32 92 1011.1
20260905031348 66 12 1.0 2.0 0.00 0.32 0.32 92 1011.7
20260905030838 66 26 0.0 2.0 0.00 0.32 0.32 92 1011.7
20260905030350 66 26 0.0 2.0 0.00 0.32 0.32 92 1011.7
20260905030116 66 37 0.0 2.0 0.00 0.32 0.32 92 1010.9
20260905030055 66 0 0.0 1.0 0.00 0.32 0.32 91 1011.4
20260905025836 66 21 0.0 1.0 0.00 0.32 0.32 92 1011.6
20260905025347 66 21 0.0 0.0 0.00 0.32 0.32 92 1011.6
20260905024837 67 21 0.0 0.0 0.00 0.32 0.32 92 1011.5
20260905024605 66 21 0.0 0.0 0.00 0.32 0.32 92 1010.9
20260905024551 66 0 0.0 1.0 0.00 0.32 0.32 91 1011.3
20260905024347 67 21 0.0 1.0 0.00 0.32 0.32 92 1011.5
20260905023836 67 21 0.0 2.0 0.00 0.32 0.32 92 1011.4
20260905023349 67 13 0.0 2.0 0.00 0.32 0.32 92 1011.4
20260905023116 66 28 0.0 1.0 0.00 0.32 0.32 91 1011.3
20260905023113 66 13 0.0 2.0 0.00 0.32 0.32 91 1010.9
20260905022855 67 28 0.0 1.0 0.00 0.32 0.32 91 1011.4
20260905022345 67 28 0.0 2.0 0.00 0.32 0.32 92 1011.4
20260905021855 67 28 1.0 2.0 0.00 0.32 0.32 91 1011.4
20260905021604 67 28 0.0 1.0 0.00 0.32 0.32 91 1010.8
20260905021552 67 0 0.0 1.0 0.00 0.32 0.32 91 1011.3
20260905021406 67 28 0.0 0.0 0.00 0.32 0.32 91 1011.4
20260905020837 68 28 0.0 0.0 0.00 0.32 0.32 91 1011.6
20260905020350 68 28 0.0 1.0 0.00 0.32 0.32 91 1011.5
20260905020115 67 28 0.0 1.0 0.00 0.32 0.32 91 1010.9
20260905020043 67 0 0.0 1.0 0.00 0.32 0.32 91 1011.4
20260905015836 68 28 0.0 1.0 0.00 0.32 0.32 91 1011.5
20260905015347 68 28 0.0 0.0 0.00 0.32 0.32 91 1011.6
20260905014836 68 28 0.0 0.0 0.00 0.32 0.32 91 1011.5
20260905014605 68 28 0.0 0.0 0.00 0.32 0.32 91 1010.8
20260905014553 68 0 0.0 0.0 0.00 0.32 0.32 90 1011.4
20260905014346 68 28 0.0 0.0 0.00 0.32 0.32 91 1011.4
20260905013841 69 28 0.0 1.0 0.00 0.32 0.32 91 1011.4
20260905013351 69 28 0.0 1.0 0.00 0.32 0.32 90 1011.3
20260905013109 68 28 0.0 1.0 0.00 0.32 0.32 90 1010.8
20260905013050 68 0 0.0 1.0 0.00 0.32 0.32 90 1011.3
20260905012857 69 28 0.0 1.0 0.00 0.32 0.32 90 1011.4
20260905012405 69 28 0.0 0.0 0.00 0.32 0.32 90 1011.4
20260905011852 69 28 0.0 1.0 0.00 0.32 0.32 90 1011.4
20260905011615 69 28 0.0 1.0 0.00 0.32 0.32 90 1010.9
20260905011547 69 0 0.0 1.0 0.00 0.32 0.32 89 1011.4
20260905011341 69 28 0.0 1.0 0.00 0.32 0.32 90 1011.5
20260905010851 70 25 0.0 1.0 0.00 0.32 0.32 90 1011.4
20260905010343 70 294 1.0 2.0 0.00 0.32 0.32 90 1011.4
20260905010112 69 294 0.0 2.0 0.00 0.32 0.32 89 1010.8
20260905010107 69 0 0.0 2.0 0.00 0.32 0.32 89 1011.5
20260905005850 70 294 0.0 2.0 0.00 0.32 0.32 89 1011.5